Time,TemperatureF,DewpointF,PressureIn,WindDirection,WindDirectionDegrees,WindSpeedMPH,WindSpeedGustMPH,Humidity,HourlyPrecipIn,Conditions,Clouds,dailyrainin,SoftwareType,DateUTC
2013-05-26 00:01:00,41.5,36.4,30.26,North,355,0.0,0.0,82,0.00,BKN,,0.00,WeatherDisplay:10.37,2013-05-26 04:01:00,
2013-05-26 00:06:00,41.3,36.2,30.26,North,355,0.0,0.0,82,0.00,BKN,,0.00,WeatherDisplay:10.37,2013-05-26 04:06:00,
2013-05-26 00:11:00,41.1,36.0,30.26,North,355,0.0,0.0,82,0.00,BKN,,0.00,WeatherDisplay:10.37,2013-05-26 04:11:00,
2013-05-26 00:16:00,40.9,36.1,30.26,North,355,0.0,0.0,83,0.00,BKN,,0.00,WeatherDisplay:10.37,2013-05-26 04:16:00,
2013-05-26 00:21:00,40.6,36.1,30.26,North,355,0.0,0.0,84,0.00,BKN,,0.00,WeatherDisplay:10.37,2013-05-26 04:21:00,
2013-05-26 00:26:00,40.5,36.0,30.26,North,355,0.0,0.0,84,0.00,BKN,,0.00,WeatherDisplay:10.37,2013-05-26 04:26:00,
2013-05-26 00:31:00,40.3,36.1,30.26,North,355,0.0,0.0,85,0.00,BKN,,0.00,WeatherDisplay:10.37,2013-05-26 04:31:00,
2013-05-26 00:36:00,40.1,36.2,30.26,North,355,0.0,0.0,86,0.00,BKN,,0.00,WeatherDisplay:10.37,2013-05-26 04:36:00,
2013-05-26 00:41:00,40.0,36.4,30.26,North,355,0.0,0.0,87,0.00,BKN,,0.00,WeatherDisplay:10.37,2013-05-26 04:41:00,
2013-05-26 00:46:00,40.0,36.4,30.26,North,355,0.0,0.0,87,0.00,BKN,,0.00,WeatherDisplay:10.37,2013-05-26 04:46:00,
2013-05-26 00:51:00,40.0,36.7,30.26,North,355,0.0,0.0,88,0.00,BKN,,0.00,WeatherDisplay:10.37,2013-05-26 04:51:00,
2013-05-26 00:56:00,40.0,36.7,30.26,North,355,0.0,0.0,88,0.00,BKN,,0.00,WeatherDisplay:10.37,2013-05-26 04:56:00,
2013-05-26 01:01:00,40.0,36.7,30.26,North,355,0.0,0.0,88,0.00,BKN,,0.00,WeatherDisplay:10.37,2013-05-26 05:01:00,
2013-05-26 01:06:00,40.0,36.7,30.26,North,355,0.0,0.0,88,0.00,BKN,,0.00,WeatherDisplay:10.37,2013-05-26 05:06:00,
2013-05-26 01:11:00,40.0,36.7,30.26,North,355,0.0,0.0,88,0.00,BKN,,0.00,WeatherDisplay:10.37,2013-05-26 05:11:00,
2013-05-26 01:16:00,39.9,36.6,30.26,North,355,0.0,0.0,88,0.00,BKN,,0.00,WeatherDisplay:10.37,2013-05-26 05:16:00,
2013-05-26 01:21:00,39.9,36.6,30.26,North,355,0.0,0.0,88,0.00,BKN,,0.00,WeatherDisplay:10.37,2013-05-26 05:21:00,
2013-05-26 01:26:00,40.0,36.7,30.26,North,355,0.0,0.0,88,0.00,BKN,,0.00,WeatherDisplay:10.37,2013-05-26 05:26:00,
2013-05-26 01:31:00,40.0,36.4,30.26,North,355,0.0,0.0,87,0.00,BKN,,0.00,WeatherDisplay:10.37,2013-05-26 05:31:00,
2013-05-26 01:36:00,40.1,36.5,30.26,North,355,0.0,0.0,87,0.00,BKN,,0.00,WeatherDisplay:10.37,2013-05-26 05:36:00,
2013-05-26 01:41:00,40.2,36.6,30.26,North,355,0.1,1.1,87,0.00,BKN,,0.00,WeatherDisplay:10.37,2013-05-26 05:41:00,
2013-05-26 01:46:00,40.2,36.9,30.25,North,355,0.0,0.0,88,0.00,BKN,,0.00,WeatherDisplay:10.37,2013-05-26 05:46:00,
2013-05-26 01:51:00,40.2,36.9,30.26,North,355,0.0,0.0,88,0.00,BKN,,0.00,WeatherDisplay:10.37,2013-05-26 05:51:00,
2013-05-26 01:56:00,40.2,36.9,30.25,North,355,0.2,1.1,88,0.00,BKN,,0.00,WeatherDisplay:10.37,2013-05-26 05:56:00,
2013-05-26 02:01:00,40.3,37.0,30.25,North,355,0.0,0.0,88,0.00,FEW,,0.00,WeatherDisplay:10.37,2013-05-26 06:01:00,
2013-05-26 02:06:00,40.2,36.9,30.25,North,355,0.0,0.0,88,0.00,FEW,,0.00,WeatherDisplay:10.37,2013-05-26 06:06:00,
2013-05-26 02:11:00,40.2,36.9,30.25,North,355,0.0,0.0,88,0.00,FEW,,0.00,WeatherDisplay:10.37,2013-05-26 06:11:00,
2013-05-26 02:16:00,40.2,37.2,30.25,North,355,0.0,0.0,89,0.00,FEW,,0.00,WeatherDisplay:10.37,2013-05-26 06:16:00,
2013-05-26 02:21:00,40.2,36.9,30.25,North,355,0.0,0.0,88,0.00,FEW,,0.00,WeatherDisplay:10.37,2013-05-26 06:21:00,
2013-05-26 02:26:00,40.1,36.8,30.25,North,355,0.0,0.0,88,0.00,FEW,,0.00,WeatherDisplay:10.37,2013-05-26 06:26:00,
2013-05-26 02:31:00,40.0,36.7,30.25,North,355,0.0,0.0,88,0.00,FEW,,0.00,WeatherDisplay:10.37,2013-05-26 06:31:00,
2013-05-26 02:36:00,39.9,36.6,30.25,North,355,0.0,0.0,88,0.00,FEW,,0.00,WeatherDisplay:10.37,2013-05-26 06:36:00,
2013-05-26 02:41:00,39.9,36.6,30.25,North,355,0.1,1.1,88,0.00,FEW,,0.00,WeatherDisplay:10.37,2013-05-26 06:41:00,
2013-05-26 02:46:00,39.8,36.5,30.25,North,355,0.0,1.1,88,0.00,FEW,,0.00,WeatherDisplay:10.37,2013-05-26 06:46:00,
2013-05-26 02:51:00,39.8,36.5,30.25,North,355,0.0,0.0,88,0.00,FEW,,0.00,WeatherDisplay:10.37,2013-05-26 06:51:00,
2013-05-26 02:56:00,39.9,36.9,30.25,North,355,0.0,0.0,89,0.00,FEW,,0.00,WeatherDisplay:10.37,2013-05-26 06:56:00,
2013-05-26 03:01:00,39.9,36.9,30.25,North,355,0.0,0.0,89,0.00,FEW,,0.00,WeatherDisplay:10.37,2013-05-26 07:01:00,
2013-05-26 03:06:00,39.9,37.2,30.25,North,355,0.1,1.1,90,0.00,FEW,,0.00,WeatherDisplay:10.37,2013-05-26 07:06:00,
2013-05-26 03:11:00,39.9,37.2,30.25,NNW,341,0.0,0.0,90,0.00,FEW,,0.00,WeatherDisplay:10.37,2013-05-26 07:11:00,
2013-05-26 03:16:00,39.9,37.2,30.25,NNW,341,0.0,0.0,90,0.00,FEW,,0.00,WeatherDisplay:10.37,2013-05-26 07:16:00,
2013-05-26 03:21:00,39.8,37.1,30.25,NNW,341,0.0,0.0,90,0.00,FEW,,0.00,WeatherDisplay:10.37,2013-05-26 07:21:00,
2013-05-26 03:26:00,39.7,37.0,30.24,NNW,341,0.0,0.0,90,0.00,FEW,,0.00,WeatherDisplay:10.37,2013-05-26 07:26:00,
2013-05-26 03:31:00,39.6,36.9,30.24,NNW,341,0.0,0.0,90,0.00,FEW,,0.00,WeatherDisplay:10.37,2013-05-26 07:31:00,
2013-05-26 03:36:00,39.5,36.8,30.24,NNW,341,0.0,0.0,90,0.00,FEW,,0.00,WeatherDisplay:10.37,2013-05-26 07:36:00,
2013-05-26 03:41:00,39.4,36.7,30.24,NNW,341,0.0,0.0,90,0.00,FEW,,0.00,WeatherDisplay:10.37,2013-05-26 07:41:00,
2013-05-26 03:46:00,39.3,36.6,30.24,NNW,341,0.0,0.0,90,0.00,FEW,,0.00,WeatherDisplay:10.37,2013-05-26 07:46:00,
2013-05-26 03:51:00,39.1,36.4,30.24,NNW,342,0.0,0.0,90,0.00,FEW,,0.00,WeatherDisplay:10.37,2013-05-26 07:51:00,
2013-05-26 03:56:00,39.0,36.6,30.24,NNW,342,0.0,0.0,91,0.00,FEW,,0.00,WeatherDisplay:10.37,2013-05-26 07:56:00,
2013-05-26 04:01:00,38.8,36.4,30.24,NNW,341,0.0,0.0,91,0.00,FEW,,0.00,WeatherDisplay:10.37,2013-05-26 08:01:00,
2013-05-26 04:06:00,38.6,36.2,30.24,NNW,343,0.0,0.0,91,0.00,FEW,,0.00,WeatherDisplay:10.37,2013-05-26 08:06:00,
2013-05-26 04:11:00,38.4,36.0,30.24,NNW,343,0.0,0.0,91,0.00,FEW,,0.00,WeatherDisplay:10.37,2013-05-26 08:11:00,
2013-05-26 04:16:00,38.3,36.2,30.24,NNW,343,0.0,0.0,92,0.00,FEW,,0.00,WeatherDisplay:10.37,2013-05-26 08:16:00,
2013-05-26 04:21:00,38.0,35.9,30.25,NNW,343,0.0,0.0,92,0.00,FEW,,0.00,WeatherDisplay:10.37,2013-05-26 08:21:00,
2013-05-26 04:26:00,37.9,35.8,30.25,NNW,343,0.0,0.0,92,0.00,FEW,,0.00,WeatherDisplay:10.37,2013-05-26 08:26:00,
2013-05-26 04:31:00,37.7,35.9,30.25,NNW,343,0.0,0.0,93,0.00,FEW,,0.00,WeatherDisplay:10.37,2013-05-26 08:31:00,
2013-05-26 04:36:00,37.6,35.8,30.25,NNW,343,0.0,0.0,93,0.00,FEW,,0.00,WeatherDisplay:10.37,2013-05-26 08:36:00,
2013-05-26 04:41:00,37.5,35.7,30.25,NNW,343,0.0,0.0,93,0.00,FEW,,0.00,WeatherDisplay:10.37,2013-05-26 08:41:00,
2013-05-26 04:46:00,37.3,35.5,30.25,NNW,343,0.0,0.0,93,0.00,FEW,,0.00,WeatherDisplay:10.37,2013-05-26 08:46:00,
2013-05-26 04:51:00,37.2,35.4,30.26,NNW,343,0.0,0.0,93,0.00,FEW,,0.00,WeatherDisplay:10.37,2013-05-26 08:51:00,
2013-05-26 04:56:00,37.1,35.5,30.26,NNW,343,0.0,0.0,94,0.00,FEW,,0.00,WeatherDisplay:10.37,2013-05-26 08:56:00,
2013-05-26 05:01:00,37.0,35.4,30.26,NNW,343,0.0,0.0,94,0.00,CLR,,0.00,WeatherDisplay:10.37,2013-05-26 09:01:00,
2013-05-26 05:06:00,37.0,35.4,30.26,NNW,343,0.0,0.0,94,0.00,CLR,,0.00,WeatherDisplay:10.37,2013-05-26 09:06:00,
2013-05-26 05:11:00,36.9,35.3,30.26,NNW,343,0.0,0.0,94,0.00,CLR,,0.00,WeatherDisplay:10.37,2013-05-26 09:11:00,
2013-05-26 05:16:00,36.8,35.5,30.27,NNW,343,0.0,0.0,95,0.00,CLR,,0.00,WeatherDisplay:10.37,2013-05-26 09:16:00,
2013-05-26 05:21:00,36.8,35.5,30.27,NNW,343,0.0,0.0,95,0.00,CLR,,0.00,WeatherDisplay:10.37,2013-05-26 09:21:00,
2013-05-26 05:26:00,36.7,35.4,30.27,NNW,343,0.0,0.0,95,0.00,CLR,,0.00,WeatherDisplay:10.37,2013-05-26 09:26:00,
2013-05-26 05:31:00,36.5,35.2,30.27,NNW,343,0.0,0.0,95,0.00,CLR,,0.00,WeatherDisplay:10.37,2013-05-26 09:31:00,
2013-05-26 05:36:00,36.4,35.1,30.27,NNW,343,0.0,0.0,95,0.00,CLR,,0.00,WeatherDisplay:10.37,2013-05-26 09:36:00,
2013-05-26 05:41:00,36.3,35.0,30.27,NNW,343,0.0,0.0,95,0.00,CLR,,0.00,WeatherDisplay:10.37,2013-05-26 09:41:00,
2013-05-26 05:46:00,36.2,34.9,30.28,NNW,343,0.0,0.0,95,0.00,CLR,,0.00,WeatherDisplay:10.37,2013-05-26 09:46:00,
2013-05-26 05:51:00,35.9,34.6,30.28,NNW,343,0.0,0.0,95,0.00,CLR,,0.00,WeatherDisplay:10.37,2013-05-26 09:51:00,
2013-05-26 05:56:00,35.7,34.4,30.28,NNW,343,0.0,0.0,95,0.00,CLR,,0.00,WeatherDisplay:10.37,2013-05-26 09:56:00,
2013-05-26 06:01:00,35.5,34.2,30.28,NNW,343,0.0,0.0,95,0.00,CLR,,0.00,WeatherDisplay:10.37,2013-05-26 10:01:00,
2013-05-26 06:06:00,35.3,34.0,30.28,NNW,343,0.0,0.0,95,0.00,CLR,,0.00,WeatherDisplay:10.37,2013-05-26 10:06:00,
2013-05-26 06:11:00,35.1,33.8,30.27,NNW,343,0.0,0.0,95,0.00,CLR,,0.00,WeatherDisplay:10.37,2013-05-26 10:11:00,
2013-05-26 06:16:00,34.9,33.6,30.28,NNW,343,0.0,0.0,95,0.00,CLR,,0.00,WeatherDisplay:10.37,2013-05-26 10:16:00,
2013-05-26 06:21:00,34.7,33.4,30.28,NNW,343,0.0,0.0,95,0.00,CLR,,0.00,WeatherDisplay:10.37,2013-05-26 10:21:00,
2013-05-26 06:26:00,34.6,33.3,30.28,NNW,343,0.0,0.0,95,0.00,CLR,,0.00,WeatherDisplay:10.37,2013-05-26 10:26:00,
2013-05-26 06:31:00,34.5,33.2,30.28,NNW,343,0.0,0.0,95,0.00,CLR,,0.00,WeatherDisplay:10.37,2013-05-26 10:31:00,
2013-05-26 06:36:00,34.4,33.4,30.28,NNW,343,0.0,0.0,96,0.00,CLR,,0.00,WeatherDisplay:10.37,2013-05-26 10:36:00,
2013-05-26 06:41:00,34.3,33.3,30.29,NNW,343,0.0,0.0,96,0.00,CLR,,0.00,WeatherDisplay:10.37,2013-05-26 10:41:00,
2013-05-26 06:46:00,34.3,33.3,30.29,NNW,343,0.0,0.0,96,0.00,CLR,,0.00,WeatherDisplay:10.37,2013-05-26 10:46:00,
2013-05-26 06:51:00,34.4,33.4,30.29,NNW,343,0.0,0.0,96,0.00,CLR,,0.00,WeatherDisplay:10.37,2013-05-26 10:51:00,
2013-05-26 06:56:00,34.4,33.4,30.29,NNW,343,0.0,0.0,96,0.00,CLR,,0.00,WeatherDisplay:10.37,2013-05-26 10:56:00,
2013-05-26 07:01:00,34.4,33.6,30.29,NNW,343,0.0,0.0,97,0.00,FEW,,0.00,WeatherDisplay:10.37,2013-05-26 11:01:00,
2013-05-26 07:06:00,34.6,33.8,30.29,NNW,343,0.0,0.0,97,0.00,FEW,,0.00,WeatherDisplay:10.37,2013-05-26 11:06:00,
2013-05-26 07:11:00,34.8,34.0,30.29,NNW,343,0.0,0.0,97,0.00,FEW,,0.00,WeatherDisplay:10.37,2013-05-26 11:11:00,
2013-05-26 07:16:00,35.0,34.2,30.30,NNW,343,0.0,0.0,97,0.00,FEW,,0.00,WeatherDisplay:10.37,2013-05-26 11:16:00,
2013-05-26 07:21:00,35.4,34.6,30.30,NNW,343,0.0,0.0,97,0.00,FEW,,0.00,WeatherDisplay:10.37,2013-05-26 11:21:00,
2013-05-26 07:26:00,35.9,35.4,30.30,NNW,343,0.0,0.0,98,0.00,FEW,,0.00,WeatherDisplay:10.37,2013-05-26 11:26:00,
2013-05-26 07:31:00,36.3,35.8,30.30,NNW,343,0.0,0.0,98,0.00,FEW,,0.00,WeatherDisplay:10.37,2013-05-26 11:31:00,
2013-05-26 07:36:00,36.6,36.1,30.30,NNW,343,0.0,0.0,98,0.00,FEW,,0.00,WeatherDisplay:10.37,2013-05-26 11:36:00,
2013-05-26 07:41:00,37.1,36.6,30.30,NNW,343,0.0,0.0,98,0.00,FEW,,0.00,WeatherDisplay:10.37,2013-05-26 11:41:00,
2013-05-26 07:46:00,37.5,37.0,30.30,NNW,343,0.0,0.0,98,0.00,FEW,,0.00,WeatherDisplay:10.37,2013-05-26 11:46:00,
2013-05-26 07:51:00,37.9,37.4,30.30,NNW,343,0.0,0.0,98,0.00,FEW,,0.00,WeatherDisplay:10.37,2013-05-26 11:51:00,
2013-05-26 07:56:00,38.3,38.0,30.30,NNW,343,0.0,0.0,99,0.00,FEW,,0.00,WeatherDisplay:10.37,2013-05-26 11:56:00,
2013-05-26 08:01:00,38.8,38.5,30.30,NNW,343,0.0,0.0,99,0.00,CLR,,0.00,WeatherDisplay:10.37,2013-05-26 12:01:00,
2013-05-26 08:06:00,39.5,39.2,30.30,NNW,343,0.2,1.1,99,0.00,CLR,,0.00,WeatherDisplay:10.37,2013-05-26 12:06:00,
2013-05-26 08:11:00,40.4,40.1,30.30,NW,310,0.5,2.3,99,0.00,CLR,,0.00,WeatherDisplay:10.37,2013-05-26 12:11:00,
2013-05-26 08:16:00,41.3,41.0,30.30,NW,310,0.0,0.0,99,0.00,CLR,,0.00,WeatherDisplay:10.37,2013-05-26 12:16:00,
2013-05-26 08:21:00,42.2,41.9,30.30,NW,310,1.2,2.3,99,0.00,CLR,,0.00,WeatherDisplay:10.37,2013-05-26 12:21:00,
2013-05-26 08:26:00,42.9,42.6,30.30,NW,309,0.0,0.0,99,0.00,CLR,,0.00,WeatherDisplay:10.37,2013-05-26 12:26:00,
2013-05-26 08:31:00,43.7,43.4,30.30,NW,309,1.3,2.3,99,0.00,CLR,,0.00,WeatherDisplay:10.37,2013-05-26 12:31:00,
2013-05-26 08:36:00,44.5,43.7,30.30,NW,304,1.9,4.6,97,0.00,CLR,,0.00,WeatherDisplay:10.37,2013-05-26 12:36:00,
2013-05-26 08:41:00,45.1,43.5,30.30,NW,305,0.1,2.3,94,0.00,CLR,,0.00,WeatherDisplay:10.37,2013-05-26 12:41:00,
2013-05-26 08:46:00,45.8,43.9,30.29,NW,305,0.0,0.0,93,0.00,CLR,,0.00,WeatherDisplay:10.37,2013-05-26 12:46:00,
2013-05-26 08:51:00,46.7,43.9,30.29,NW,306,0.8,2.3,90,0.00,CLR,,0.00,WeatherDisplay:10.37,2013-05-26 12:51:00,
2013-05-26 08:56:00,47.4,44.0,30.29,West,280,0.8,2.3,88,0.00,CLR,,0.00,WeatherDisplay:10.37,2013-05-26 12:56:00,
2013-05-26 09:01:00,48.0,43.4,30.29,NNW,339,1.2,4.6,84,0.00,CLR,,0.00,WeatherDisplay:10.37,2013-05-26 13:01:00,
2013-05-26 09:06:00,48.6,44.3,30.29,NNE,18,2.1,3.5,85,0.00,CLR,,0.00,WeatherDisplay:10.37,2013-05-26 13:06:00,
2013-05-26 09:11:00,49.2,44.3,30.30,East,80,1.1,3.5,83,0.00,CLR,,0.00,WeatherDisplay:10.37,2013-05-26 13:11:00,
2013-05-26 09:16:00,50.0,44.7,30.29,NE,49,1.5,3.5,82,0.00,CLR,,0.00,WeatherDisplay:10.37,2013-05-26 13:16:00,
2013-05-26 09:21:00,50.7,45.1,30.29,North,360,2.3,3.5,81,0.00,CLR,,0.00,WeatherDisplay:10.37,2013-05-26 13:21:00,
2013-05-26 09:26:00,51.3,44.7,30.29,NNW,327,1.9,3.5,78,0.00,CLR,,0.00,WeatherDisplay:10.37,2013-05-26 13:26:00,
2013-05-26 09:31:00,51.8,44.8,30.29,NNE,30,2.1,3.5,77,0.00,CLR,,0.00,WeatherDisplay:10.37,2013-05-26 13:31:00,
2013-05-26 09:36:00,52.2,44.2,30.29,NNE,29,0.0,0.0,74,0.00,CLR,,0.00,WeatherDisplay:10.37,2013-05-26 13:36:00,
2013-05-26 09:41:00,52.6,44.9,30.29,NNW,327,0.8,2.3,75,0.00,CLR,,0.00,WeatherDisplay:10.37,2013-05-26 13:41:00,
2013-05-26 09:46:00,53.2,45.1,30.29,NW,314,0.3,3.5,74,0.00,CLR,,0.00,WeatherDisplay:10.37,2013-05-26 13:46:00,
2013-05-26 09:51:00,53.5,45.1,30.29,NNW,346,0.2,1.1,73,0.00,CLR,,0.00,WeatherDisplay:10.37,2013-05-26 13:51:00,
2013-05-26 09:56:00,53.9,45.1,30.29,North,355,3.8,5.8,72,0.00,CLR,,0.00,WeatherDisplay:10.37,2013-05-26 13:56:00,
2013-05-26 10:01:00,54.4,45.2,30.28,NNW,330,3.0,3.5,71,0.00,FEW,,0.00,WeatherDisplay:10.37,2013-05-26 14:01:00,
2013-05-26 10:06:00,55.0,46.5,30.29,NNW,339,3.0,4.6,73,0.00,FEW,,0.00,WeatherDisplay:10.37,2013-05-26 14:06:00,
2013-05-26 10:11:00,55.3,43.3,30.28,North,11,0.6,3.0,64,0.00,FEW,,0.00,WeatherDisplay:10.37,2013-05-26 14:11:00,
2013-05-26 10:16:00,55.5,43.9,30.29,NNW,329,1.3,4.0,65,0.00,FEW,,0.00,WeatherDisplay:10.37,2013-05-26 14:16:00,
2013-05-26 10:21:00,55.9,43.5,30.29,NE,44,2.4,3.5,63,0.00,FEW,,0.00,WeatherDisplay:10.37,2013-05-26 14:21:00,
2013-05-26 10:26:00,56.3,45.1,30.29,NNE,29,0.9,2.3,66,0.00,FEW,,0.00,WeatherDisplay:10.37,2013-05-26 14:26:00,
2013-05-26 10:31:00,56.6,43.3,30.29,NW,315,1.2,3.5,61,0.00,FEW,,0.00,WeatherDisplay:10.37,2013-05-26 14:31:00,
2013-05-26 10:36:00,56.7,43.0,30.29,NNE,24,1.6,3.5,60,0.00,FEW,,0.00,WeatherDisplay:10.37,2013-05-26 14:36:00,
2013-05-26 10:41:00,57.0,43.2,30.30,NNW,331,1.9,3.5,60,0.00,FEW,,0.00,WeatherDisplay:10.37,2013-05-26 14:41:00,
2013-05-26 10:46:00,57.3,44.8,30.29,NE,40,1.8,3.5,63,0.00,FEW,,0.00,WeatherDisplay:10.37,2013-05-26 14:46:00,
2013-05-26 10:51:00,57.6,46.3,30.29,North,355,1.7,5.0,66,0.00,FEW,,0.00,WeatherDisplay:10.37,2013-05-26 14:51:00,
2013-05-26 10:56:00,58.0,45.5,30.29,WNW,292,0.7,4.0,63,0.00,FEW,,0.00,WeatherDisplay:10.37,2013-05-26 14:56:00,
2013-05-26 11:01:00,58.4,44.6,30.29,WNW,296,2.7,5.8,60,0.00,SCT,,0.00,WeatherDisplay:10.37,2013-05-26 15:01:00,
2013-05-26 11:06:00,58.6,42.5,30.29,NE,49,4.3,5.8,55,0.00,SCT,,0.00,WeatherDisplay:10.37,2013-05-26 15:06:00,
2013-05-26 11:11:00,58.8,41.7,30.29,North,5,5.4,6.9,53,0.00,SCT,,0.00,WeatherDisplay:10.37,2013-05-26 15:11:00,
2013-05-26 11:16:00,58.9,41.8,30.29,WNW,300,3.3,4.6,53,0.00,SCT,,0.00,WeatherDisplay:10.37,2013-05-26 15:16:00,
2013-05-26 11:21:00,59.2,44.0,30.29,NW,305,2.2,3.5,57,0.00,SCT,,0.00,WeatherDisplay:10.37,2013-05-26 15:21:00,
2013-05-26 11:26:00,59.2,43.0,30.29,SW,232,3.8,6.9,55,0.00,SCT,,0.00,WeatherDisplay:10.37,2013-05-26 15:26:00,
2013-05-26 11:31:00,59.3,44.1,30.28,NNW,328,2.6,4.6,57,0.00,SCT,,0.00,WeatherDisplay:10.37,2013-05-26 15:31:00,
2013-05-26 11:36:00,59.6,43.9,30.28,North,349,0.5,2.3,56,0.00,SCT,,0.00,WeatherDisplay:10.37,2013-05-26 15:36:00,
2013-05-26 11:41:00,60.0,44.3,30.28,NW,322,2.0,5.8,56,0.00,SCT,,0.00,WeatherDisplay:10.37,2013-05-26 15:41:00,
2013-05-26 11:46:00,60.4,43.7,30.28,NNE,26,2.5,4.6,54,0.00,SCT,,0.00,WeatherDisplay:10.37,2013-05-26 15:46:00,
2013-05-26 11:51:00,60.5,45.2,30.29,North,9,3.7,6.9,57,0.00,SCT,,0.00,WeatherDisplay:10.37,2013-05-26 15:51:00,
2013-05-26 11:56:00,60.6,43.4,30.29,NNE,25,5.6,10.4,53,0.00,SCT,,0.00,WeatherDisplay:10.37,2013-05-26 15:56:00,
2013-05-26 12:01:00,60.6,43.4,30.29,North,360,3.6,5.8,53,0.00,SCT,,0.00,WeatherDisplay:10.37,2013-05-26 16:01:00,
2013-05-26 12:06:00,60.6,43.9,30.29,NW,326,2.2,5.8,54,0.00,SCT,,0.00,WeatherDisplay:10.37,2013-05-26 16:06:00,
2013-05-26 12:11:00,60.7,42.5,30.29,NW,311,4.4,11.5,51,0.00,SCT,,0.00,WeatherDisplay:10.37,2013-05-26 16:11:00,
2013-05-26 12:16:00,61.0,44.2,30.29,North,5,1.6,3.5,54,0.00,SCT,,0.00,WeatherDisplay:10.37,2013-05-26 16:16:00,
2013-05-26 12:21:00,61.1,44.3,30.29,NW,323,3.1,4.6,54,0.00,SCT,,0.00,WeatherDisplay:10.37,2013-05-26 16:21:00,
2013-05-26 12:26:00,61.1,44.8,30.29,NW,313,0.5,1.1,55,0.00,SCT,,0.00,WeatherDisplay:10.37,2013-05-26 16:26:00,
2013-05-26 12:31:00,61.4,41.0,30.29,NE,40,6.7,11.5,47,0.00,SCT,,0.00,WeatherDisplay:10.37,2013-05-26 16:31:00,
2013-05-26 12:36:00,61.5,42.7,30.28,NNE,24,4.5,10.4,50,0.00,SCT,,0.00,WeatherDisplay:10.37,2013-05-26 16:36:00,
2013-05-26 12:41:00,61.7,42.3,30.28,WNW,303,5.0,8.1,49,0.00,SCT,,0.00,WeatherDisplay:10.37,2013-05-26 16:41:00,
2013-05-26 12:46:00,61.5,41.6,30.28,West,271,2.6,5.8,48,0.00,SCT,,0.00,WeatherDisplay:10.37,2013-05-26 16:46:00,
2013-05-26 12:51:00,61.5,44.2,30.28,WNW,290,3.6,4.6,53,0.00,SCT,,0.00,WeatherDisplay:10.37,2013-05-26 16:51:00,
2013-05-26 12:56:00,61.3,43.0,30.28,North,5,3.6,6.9,51,0.00,SCT,,0.00,WeatherDisplay:10.37,2013-05-26 16:56:00,
2013-05-26 13:01:00,61.6,43.3,30.28,West,271,3.2,5.8,51,0.00,SCT,,0.00,WeatherDisplay:10.37,2013-05-26 17:01:00,
2013-05-26 13:06:00,61.7,42.3,30.28,NE,36,0.3,1.1,49,0.00,SCT,,0.00,WeatherDisplay:10.37,2013-05-26 17:06:00,
2013-05-26 13:11:00,61.9,45.5,30.28,WNW,295,1.9,4.6,55,0.00,SCT,,0.00,WeatherDisplay:10.37,2013-05-26 17:11:00,
2013-05-26 13:16:00,61.9,42.0,30.28,NW,304,2.8,5.8,48,0.00,SCT,,0.00,WeatherDisplay:10.37,2013-05-26 17:16:00,
2013-05-26 13:21:00,62.0,43.1,30.27,North,350,3.4,5.8,50,0.00,SCT,,0.00,WeatherDisplay:10.37,2013-05-26 17:21:00,
2013-05-26 13:26:00,62.2,40.0,30.27,NE,46,2.4,4.6,44,0.00,SCT,,0.00,WeatherDisplay:10.37,2013-05-26 17:26:00,
2013-05-26 13:31:00,62.2,40.0,30.27,NW,319,4.4,5.8,44,0.00,SCT,,0.00,WeatherDisplay:10.37,2013-05-26 17:31:00,
2013-05-26 13:36:00,62.2,44.3,30.28,NE,56,2.2,6.9,52,0.00,SCT,,0.00,WeatherDisplay:10.37,2013-05-26 17:36:00,
2013-05-26 13:41:00,62.2,41.2,30.28,North,351,2.5,5.8,46,0.00,SCT,,0.00,WeatherDisplay:10.37,2013-05-26 17:41:00,
2013-05-26 13:46:00,62.3,42.3,30.27,North,355,3.9,9.2,48,0.00,SCT,,0.00,WeatherDisplay:10.37,2013-05-26 17:46:00,
2013-05-26 13:51:00,62.5,39.1,30.27,NNW,329,2.9,7.0,42,0.00,SCT,,0.00,WeatherDisplay:10.37,2013-05-26 17:51:00,
2013-05-26 13:56:00,62.6,41.5,30.27,NNW,327,4.3,5.8,46,0.00,SCT,,0.00,WeatherDisplay:10.37,2013-05-26 17:56:00,
2013-05-26 14:01:00,62.7,46.3,30.28,NNW,346,5.6,11.5,55,0.00,SCT,,0.00,WeatherDisplay:10.37,2013-05-26 18:01:00,
2013-05-26 14:06:00,62.6,43.2,30.28,NNW,344,2.8,4.6,49,0.00,SCT,,0.00,WeatherDisplay:10.37,2013-05-26 18:06:00,
2013-05-26 14:11:00,62.8,42.3,30.27,NNE,12,0.4,2.0,47,0.00,SCT,,0.00,WeatherDisplay:10.37,2013-05-26 18:11:00,
2013-05-26 14:16:00,63.0,43.5,30.28,West,275,2.8,5.0,49,0.00,SCT,,0.00,WeatherDisplay:10.37,2013-05-26 18:16:00,
2013-05-26 14:21:00,63.0,40.1,30.28,WNW,294,3.7,4.6,43,0.00,SCT,,0.00,WeatherDisplay:10.37,2013-05-26 18:21:00,
2013-05-26 14:26:00,63.1,41.4,30.27,NW,321,1.7,3.5,45,0.00,SCT,,0.00,WeatherDisplay:10.37,2013-05-26 18:26:00,
2013-05-26 14:31:00,63.0,38.9,30.27,SSW,195,3.6,5.8,41,0.00,SCT,,0.00,WeatherDisplay:10.37,2013-05-26 18:31:00,
2013-05-26 14:36:00,63.0,40.1,30.27,NW,306,1.7,4.6,43,0.00,SCT,,0.00,WeatherDisplay:10.37,2013-05-26 18:36:00,
2013-05-26 14:41:00,63.0,43.0,30.27,WNW,284,3.9,5.8,48,0.00,SCT,,0.00,WeatherDisplay:10.37,2013-05-26 18:41:00,
2013-05-26 14:46:00,63.0,39.5,30.27,WNW,294,2.1,5.8,42,0.00,SCT,,0.00,WeatherDisplay:10.37,2013-05-26 18:46:00,
2013-05-26 14:51:00,63.0,39.5,30.27,North,11,1.8,5.8,42,0.00,SCT,,0.00,WeatherDisplay:10.37,2013-05-26 18:51:00,
2013-05-26 14:56:00,63.2,40.9,30.27,WNW,300,3.9,4.6,44,0.00,SCT,,0.00,WeatherDisplay:10.37,2013-05-26 18:56:00,
2013-05-26 15:01:00,63.3,42.7,30.27,NNW,341,2.3,4.6,47,0.00,SCT,,0.00,WeatherDisplay:10.37,2013-05-26 19:01:00,
2013-05-26 15:06:00,63.6,43.0,30.26,NW,307,4.7,5.8,47,0.00,SCT,,0.00,WeatherDisplay:10.37,2013-05-26 19:06:00,
2013-05-26 15:11:00,63.7,40.8,30.26,NW,306,2.9,4.6,43,0.00,SCT,,0.00,WeatherDisplay:10.37,2013-05-26 19:11:00,
2013-05-26 15:16:00,63.7,41.9,30.26,NNE,22,3.9,6.9,45,0.00,SCT,,0.00,WeatherDisplay:10.37,2013-05-26 19:16:00,
2013-05-26 15:21:00,63.9,43.8,30.26,NW,312,2.2,4.6,48,0.00,SCT,,0.00,WeatherDisplay:10.37,2013-05-26 19:21:00,
2013-05-26 15:26:00,64.2,39.4,30.26,NE,53,4.3,6.9,40,0.00,SCT,,0.00,WeatherDisplay:10.37,2013-05-26 19:26:00,
2013-05-26 15:31:00,64.4,39.5,30.26,WNW,282,1.8,3.5,40,0.00,SCT,,0.00,WeatherDisplay:10.37,2013-05-26 19:31:00,
2013-05-26 15:36:00,64.5,40.9,30.26,NNE,22,3.8,5.8,42,0.00,SCT,,0.00,WeatherDisplay:10.37,2013-05-26 19:36:00,
2013-05-26 15:41:00,64.5,39.0,30.26,West,277,3.8,5.8,39,0.00,SCT,,0.00,WeatherDisplay:10.37,2013-05-26 19:41:00,
2013-05-26 15:46:00,64.6,41.0,30.26,NW,309,1.6,6.9,42,0.00,SCT,,0.00,WeatherDisplay:10.37,2013-05-26 19:46:00,
2013-05-26 15:51:00,64.5,39.6,30.26,NNW,331,1.4,2.3,40,0.00,SCT,,0.00,WeatherDisplay:10.37,2013-05-26 19:51:00,
2013-05-26 15:56:00,64.7,39.2,30.26,East,97,5.2,8.1,39,0.00,SCT,,0.00,WeatherDisplay:10.37,2013-05-26 19:56:00,
2013-05-26 16:01:00,64.4,38.2,30.26,NNE,30,0.5,2.3,38,0.00,SCT,,0.00,WeatherDisplay:10.37,2013-05-26 20:01:00,
2013-05-26 16:06:00,64.4,38.2,30.26,WNW,298,5.4,9.2,38,0.00,SCT,,0.00,WeatherDisplay:10.37,2013-05-26 20:06:00,
2013-05-26 16:11:00,64.5,39.6,30.26,East,90,4.8,8.1,40,0.00,SCT,,0.00,WeatherDisplay:10.37,2013-05-26 20:11:00,
2013-05-26 16:16:00,64.4,38.9,30.25,NE,49,2.7,4.6,39,0.00,SCT,,0.00,WeatherDisplay:10.37,2013-05-26 20:16:00,
2013-05-26 16:21:00,64.4,39.5,30.25,NW,325,2.8,4.6,40,0.00,SCT,,0.00,WeatherDisplay:10.37,2013-05-26 20:21:00,
2013-05-26 16:26:00,64.3,40.1,30.25,NNW,340,5.8,9.2,41,0.00,SCT,,0.00,WeatherDisplay:10.37,2013-05-26 20:26:00,
2013-05-26 16:31:00,64.3,38.1,30.25,NW,319,3.8,4.6,38,0.00,SCT,,0.00,WeatherDisplay:10.37,2013-05-26 20:31:00,
2013-05-26 16:36:00,64.4,39.5,30.25,WNW,290,2.8,6.0,40,0.00,SCT,,0.00,WeatherDisplay:10.37,2013-05-26 20:36:00,
2013-05-26 16:41:00,64.3,39.4,30.25,North,351,0.7,3.5,40,0.00,SCT,,0.00,WeatherDisplay:10.37,2013-05-26 20:41:00,
2013-05-26 16:46:00,64.3,38.8,30.25,West,279,3.0,4.6,39,0.00,SCT,,0.00,WeatherDisplay:10.37,2013-05-26 20:46:00,
2013-05-26 16:51:00,64.3,40.7,30.25,NNW,336,0.6,4.6,42,0.00,SCT,,0.00,WeatherDisplay:10.37,2013-05-26 20:51:00,
2013-05-26 16:56:00,64.6,41.6,30.25,WNW,290,4.0,6.9,43,0.00,SCT,,0.00,WeatherDisplay:10.37,2013-05-26 20:56:00,
2013-05-26 17:01:00,64.5,39.0,30.25,WNW,300,1.3,2.3,39,0.00,SCT,,0.00,WeatherDisplay:10.37,2013-05-26 21:01:00,
2013-05-26 17:06:00,64.3,39.4,30.25,NW,309,3.3,6.9,40,0.00,SCT,,0.00,WeatherDisplay:10.37,2013-05-26 21:06:00,
2013-05-26 17:11:00,64.2,40.0,30.24,NE,43,2.7,6.9,41,0.00,SCT,,0.00,WeatherDisplay:10.37,2013-05-26 21:11:00,
2013-05-26 17:16:00,64.0,37.2,30.25,NE,41,2.4,3.5,37,0.00,SCT,,0.00,WeatherDisplay:10.37,2013-05-26 21:16:00,
2013-05-26 17:21:00,63.8,36.3,30.25,NE,39,1.0,4.6,36,0.00,SCT,,0.00,WeatherDisplay:10.37,2013-05-26 21:21:00,
2013-05-26 17:26:00,63.6,41.3,30.25,NNE,21,0.3,3.0,44,0.00,SCT,,0.00,WeatherDisplay:10.37,2013-05-26 21:26:00,
2013-05-26 17:31:00,63.6,40.1,30.25,NNW,344,3.4,5.8,42,0.00,SCT,,0.00,WeatherDisplay:10.37,2013-05-26 21:31:00,
2013-05-26 17:36:00,63.5,36.7,30.24,WNW,282,3.2,5.8,37,0.00,SCT,,0.00,WeatherDisplay:10.37,2013-05-26 21:36:00,
2013-05-26 17:41:00,63.4,38.6,30.24,WNW,288,3.3,4.6,40,0.00,SCT,,0.00,WeatherDisplay:10.37,2013-05-26 21:41:00,
2013-05-26 17:46:00,63.1,37.1,30.24,SSW,198,2.5,4.6,38,0.00,SCT,,0.00,WeatherDisplay:10.37,2013-05-26 21:46:00,
2013-05-26 17:51:00,62.9,37.5,30.24,North,360,3.7,5.8,39,0.00,SCT,,0.00,WeatherDisplay:10.37,2013-05-26 21:51:00,
2013-05-26 17:56:00,62.8,36.1,30.24,NE,50,1.7,4.6,37,0.00,SCT,,0.00,WeatherDisplay:10.37,2013-05-26 21:56:00,
2013-05-26 18:01:00,62.8,38.1,30.24,NNW,346,2.1,4.6,40,0.00,SCT,,0.00,WeatherDisplay:10.37,2013-05-26 22:01:00,
2013-05-26 18:06:00,62.7,38.0,30.24,NNW,344,2.1,3.5,40,0.00,SCT,,0.00,WeatherDisplay:10.37,2013-05-26 22:06:00,
2013-05-26 18:11:00,62.7,39.9,30.23,NNW,337,0.6,2.0,43,0.00,SCT,,0.00,WeatherDisplay:10.37,2013-05-26 22:11:00,
2013-05-26 18:16:00,62.7,38.0,30.23,NNE,20,3.7,6.9,40,0.00,SCT,,0.00,WeatherDisplay:10.37,2013-05-26 22:16:00,
2013-05-26 18:21:00,62.7,35.3,30.24,NNE,14,3.2,5.8,36,0.00,SCT,,0.00,WeatherDisplay:10.37,2013-05-26 22:21:00,
2013-05-26 18:26:00,62.5,37.2,30.24,NE,51,1.6,4.6,39,0.00,SCT,,0.00,WeatherDisplay:10.37,2013-05-26 22:26:00,
2013-05-26 18:31:00,62.5,37.2,30.24,ENE,69,2.4,4.6,39,0.00,SCT,,0.00,WeatherDisplay:10.37,2013-05-26 22:31:00,
2013-05-26 18:36:00,62.5,37.2,30.24,NNE,28,0.6,3.5,39,0.00,SCT,,0.00,WeatherDisplay:10.37,2013-05-26 22:36:00,
2013-05-26 18:41:00,62.6,40.4,30.24,NE,44,0.7,3.5,44,0.00,SCT,,0.00,WeatherDisplay:10.37,2013-05-26 22:41:00,
2013-05-26 18:46:00,62.6,36.6,30.24,NNW,346,3.5,6.9,38,0.00,SCT,,0.00,WeatherDisplay:10.37,2013-05-26 22:46:00,
2013-05-26 18:51:00,62.5,37.2,30.23,NE,40,3.2,5.8,39,0.00,SCT,,0.00,WeatherDisplay:10.37,2013-05-26 22:51:00,
2013-05-26 18:56:00,62.4,38.4,30.23,NNE,30,0.0,0.0,41,0.00,SCT,,0.00,WeatherDisplay:10.37,2013-05-26 22:56:00,
2013-05-26 19:01:00,62.3,38.3,30.23,NE,38,0.7,2.3,41,0.00,BKN,,0.00,WeatherDisplay:10.37,2013-05-26 23:01:00,
2013-05-26 19:06:00,62.2,39.4,30.23,NE,36,0.1,1.1,43,0.00,BKN,,0.00,WeatherDisplay:10.37,2013-05-26 23:06:00,
2013-05-26 19:11:00,62.0,39.8,30.23,NNW,346,0.0,0.0,44,0.00,BKN,,0.00,WeatherDisplay:10.37,2013-05-26 23:11:00,
2013-05-26 19:16:00,61.8,38.4,30.23,North,5,1.2,3.5,42,0.00,BKN,,0.00,WeatherDisplay:10.37,2013-05-26 23:16:00,
2013-05-26 19:21:00,61.6,37.7,30.23,NW,315,3.7,6.9,41,0.00,BKN,,0.00,WeatherDisplay:10.37,2013-05-26 23:21:00,
2013-05-26 19:26:00,61.4,40.4,30.23,NW,313,0.2,1.1,46,0.00,BKN,,0.00,WeatherDisplay:10.37,2013-05-26 23:26:00,
2013-05-26 19:31:00,60.9,38.2,30.23,North,350,0.4,2.3,43,0.00,BKN,,0.00,WeatherDisplay:10.37,2013-05-26 23:31:00,
2013-05-26 19:36:00,60.3,37.1,30.23,NNE,27,0.0,0.0,42,0.00,BKN,,0.00,WeatherDisplay:10.37,2013-05-26 23:36:00,
2013-05-26 19:41:00,59.9,38.5,30.23,NNE,27,0.0,0.0,45,0.00,BKN,,0.00,WeatherDisplay:10.37,2013-05-26 23:41:00,
2013-05-26 19:46:00,59.5,39.8,30.23,NNE,21,1.1,3.5,48,0.00,BKN,,0.00,WeatherDisplay:10.37,2013-05-26 23:46:00,
2013-05-26 19:51:00,59.1,38.9,30.23,North,360,0.2,2.0,47,0.00,BKN,,0.00,WeatherDisplay:10.37,2013-05-26 23:51:00,
2013-05-26 19:56:00,58.7,39.0,30.23,North,360,0.0,0.0,48,0.00,BKN,,0.00,WeatherDisplay:10.37,2013-05-26 23:56:00,
2013-05-26 20:01:00,58.3,39.2,30.23,North,360,0.0,0.0,49,0.00,BKN,,0.00,WeatherDisplay:10.37,2013-05-27 00:01:00,
2013-05-26 20:06:00,57.8,40.8,30.22,North,360,0.0,0.0,53,0.00,BKN,,0.00,WeatherDisplay:10.37,2013-05-27 00:06:00,
2013-05-26 20:11:00,57.4,41.8,30.22,North,360,0.0,0.0,56,0.00,BKN,,0.00,WeatherDisplay:10.37,2013-05-27 00:11:00,
2013-05-26 20:16:00,56.9,39.4,30.22,North,360,0.0,0.0,52,0.00,BKN,,0.00,WeatherDisplay:10.37,2013-05-27 00:16:00,
2013-05-26 20:21:00,56.3,39.4,30.22,North,360,0.0,0.0,53,0.00,BKN,,0.00,WeatherDisplay:10.37,2013-05-27 00:21:00,
2013-05-26 20:26:00,55.8,39.9,30.22,North,360,0.0,0.0,55,0.00,BKN,,0.00,WeatherDisplay:10.37,2013-05-27 00:26:00,
2013-05-26 20:31:00,55.4,40.0,30.22,North,360,0.0,0.0,56,0.00,BKN,,0.00,WeatherDisplay:10.37,2013-05-27 00:31:00,
2013-05-26 20:36:00,55.0,41.4,30.22,North,360,0.0,0.0,60,0.00,BKN,,0.00,WeatherDisplay:10.37,2013-05-27 00:36:00,
2013-05-26 20:41:00,54.5,40.9,30.22,North,360,0.0,0.0,60,0.00,BKN,,0.00,WeatherDisplay:10.37,2013-05-27 00:41:00,
2013-05-26 20:46:00,54.1,40.1,30.23,North,360,0.0,0.0,59,0.00,BKN,,0.00,WeatherDisplay:10.37,2013-05-27 00:46:00,
2013-05-26 20:51:00,53.7,41.8,30.22,North,360,0.0,0.0,64,0.00,BKN,,0.00,WeatherDisplay:10.37,2013-05-27 00:51:00,
2013-05-26 20:56:00,53.2,40.5,30.22,North,360,0.0,0.0,62,0.00,BKN,,0.00,WeatherDisplay:10.37,2013-05-27 00:56:00,
2013-05-26 21:01:00,52.8,41.0,30.22,North,360,0.0,0.0,64,0.00,SCT,,0.00,WeatherDisplay:10.37,2013-05-27 01:01:00,
2013-05-26 21:06:00,52.4,41.0,30.22,North,360,0.0,0.0,65,0.00,SCT,,0.00,WeatherDisplay:10.37,2013-05-27 01:06:00,
2013-05-26 21:11:00,52.0,41.0,30.22,North,360,0.0,0.0,66,0.00,SCT,,0.00,WeatherDisplay:10.37,2013-05-27 01:11:00,
2013-05-26 21:16:00,51.7,41.1,30.22,North,360,0.0,0.0,67,0.00,SCT,,0.00,WeatherDisplay:10.37,2013-05-27 01:16:00,
2013-05-26 21:21:00,51.4,40.8,30.22,North,360,0.0,0.0,67,0.00,SCT,,0.00,WeatherDisplay:10.37,2013-05-27 01:21:00,
2013-05-26 21:26:00,51.1,40.9,30.22,North,360,0.0,0.0,68,0.00,SCT,,0.00,WeatherDisplay:10.37,2013-05-27 01:26:00,
2013-05-26 21:31:00,50.8,41.0,30.23,North,360,0.0,0.0,69,0.00,SCT,,0.00,WeatherDisplay:10.37,2013-05-27 01:31:00,
2013-05-26 21:36:00,50.6,40.8,30.23,North,360,0.0,0.0,69,0.00,SCT,,0.00,WeatherDisplay:10.37,2013-05-27 01:36:00,
2013-05-26 21:41:00,50.3,40.5,30.23,North,360,0.0,0.0,69,0.00,SCT,,0.00,WeatherDisplay:10.37,2013-05-27 01:41:00,
2013-05-26 21:46:00,50.1,40.3,30.23,North,360,0.0,0.0,69,0.00,SCT,,0.00,WeatherDisplay:10.37,2013-05-27 01:46:00,
2013-05-26 21:51:00,49.9,40.9,30.23,North,360,0.0,0.0,71,0.00,SCT,,0.00,WeatherDisplay:10.37,2013-05-27 01:51:00,
2013-05-26 21:56:00,49.6,40.9,30.24,North,360,0.0,0.0,72,0.00,SCT,,0.00,WeatherDisplay:10.37,2013-05-27 01:56:00,
2013-05-26 22:01:00,49.5,41.6,30.24,North,360,0.0,0.0,74,0.00,BKN,,0.00,WeatherDisplay:10.37,2013-05-27 02:01:00,
2013-05-26 22:06:00,49.3,41.4,30.23,North,360,0.0,0.0,74,0.00,BKN,,0.00,WeatherDisplay:10.37,2013-05-27 02:06:00,
2013-05-26 22:11:00,49.1,41.2,30.24,North,360,0.0,0.0,74,0.00,BKN,,0.00,WeatherDisplay:10.37,2013-05-27 02:11:00,
2013-05-26 22:16:00,49.0,41.4,30.24,North,360,0.0,0.0,75,0.00,BKN,,0.00,WeatherDisplay:10.37,2013-05-27 02:16:00,
2013-05-26 22:21:00,48.8,41.2,30.24,North,360,0.0,0.0,75,0.00,BKN,,0.00,WeatherDisplay:10.37,2013-05-27 02:21:00,
2013-05-26 22:26:00,48.6,41.4,30.24,North,360,0.0,0.0,76,0.00,BKN,,0.00,WeatherDisplay:10.37,2013-05-27 02:26:00,
2013-05-26 22:31:00,48.4,41.2,30.24,North,360,0.0,0.0,76,0.00,BKN,,0.00,WeatherDisplay:10.37,2013-05-27 02:31:00,
2013-05-26 22:36:00,48.2,41.7,30.24,North,360,0.0,0.0,78,0.00,BKN,,0.00,WeatherDisplay:10.37,2013-05-27 02:36:00,
2013-05-26 22:41:00,48.1,41.9,30.24,North,360,0.0,0.0,79,0.00,BKN,,0.00,WeatherDisplay:10.37,2013-05-27 02:41:00,
2013-05-26 22:46:00,47.9,41.7,30.25,North,360,0.0,0.0,79,0.00,BKN,,0.00,WeatherDisplay:10.37,2013-05-27 02:46:00,
2013-05-26 22:51:00,47.6,41.4,30.24,North,360,0.0,0.0,79,0.00,BKN,,0.00,WeatherDisplay:10.37,2013-05-27 02:51:00,
2013-05-26 22:56:00,47.4,41.5,30.25,North,360,0.0,0.0,80,0.00,BKN,,0.00,WeatherDisplay:10.37,2013-05-27 02:56:00,
2013-05-26 23:01:00,47.2,41.3,30.24,North,360,0.0,0.0,80,0.00,BKN,,0.00,WeatherDisplay:10.37,2013-05-27 03:01:00,
2013-05-26 23:06:00,47.0,41.5,30.24,North,360,0.0,0.0,81,0.00,BKN,,0.00,WeatherDisplay:10.37,2013-05-27 03:06:00,
2013-05-26 23:11:00,46.7,41.2,30.25,North,360,0.0,0.0,81,0.00,BKN,,0.00,WeatherDisplay:10.37,2013-05-27 03:11:00,
2013-05-26 23:16:00,46.5,41.0,30.25,North,360,0.0,0.0,81,0.00,BKN,,0.00,WeatherDisplay:10.37,2013-05-27 03:16:00,
2013-05-26 23:21:00,46.3,41.1,30.24,North,360,0.0,0.0,82,0.00,BKN,,0.00,WeatherDisplay:10.37,2013-05-27 03:21:00,
2013-05-26 23:26:00,46.1,40.9,30.24,North,360,0.0,0.0,82,0.00,BKN,,0.00,WeatherDisplay:10.37,2013-05-27 03:26:00,
2013-05-26 23:31:00,45.9,41.0,30.24,North,360,0.0,0.0,83,0.00,BKN,,0.00,WeatherDisplay:10.37,2013-05-27 03:31:00,
2013-05-26 23:36:00,45.7,41.1,30.25,North,360,0.0,0.0,84,0.00,BKN,,0.00,WeatherDisplay:10.37,2013-05-27 03:36:00,
2013-05-26 23:41:00,45.5,40.9,30.25,North,360,0.0,0.0,84,0.00,BKN,,0.00,WeatherDisplay:10.37,2013-05-27 03:41:00,
2013-05-26 23:46:00,45.3,41.1,30.25,North,360,0.0,0.0,85,0.00,BKN,,0.00,WeatherDisplay:10.37,2013-05-27 03:46:00,
2013-05-26 23:51:00,45.2,41.0,30.24,North,360,0.0,0.0,85,0.00,BKN,,0.00,WeatherDisplay:10.37,2013-05-27 03:51:00,
2013-05-26 23:56:00,45.0,41.1,30.25,North,360,0.0,0.0,86,0.00,BKN,,0.00,WeatherDisplay:10.37,2013-05-27 03:56:00,